Météo par heure à 1-e Maya

Ce jour, 15 Avril, Jeudi

Heure Température Précipitation Vent Pression Humidité
00:00 +10°C° 0 mm 2 m/s 752 mmHg 61%
01:00 +10°C° 0 mm 2 m/s 752 mmHg 62%
02:00 +10°C° 0 mm 2 m/s 752 mmHg 63%
03:00 +9°C° 0 mm 2 m/s 752 mmHg 65%
04:00 +9°C° 0 mm 2 m/s 752 mmHg 66%
05:00 +9°C° 0 mm 2 m/s 752 mmHg 68%
06:00 +9°C° 0 mm 1 m/s 752 mmHg 69%
07:00 +10°C° 0 mm 2 m/s 752 mmHg 63%
08:00 +13°C° 0 mm 2 m/s 752 mmHg 56%
09:00 +15°C° 0 mm 2 m/s 752 mmHg 49%
10:00 +17°C° 0 mm 2 m/s 752 mmHg 45%
11:00 +18°C° 0 mm 2 m/s 752 mmHg 41%
12:00 +20°C° 0 mm 2 m/s 751 mmHg 36%
13:00 +21°C° 0 mm 2 m/s 751 mmHg 35%
14:00 +21°C° 0 mm 2 m/s 751 mmHg 33%
15:00 +22°C° 0 mm 3 m/s 751 mmHg 31%
16:00 +21°C° 0 mm 2 m/s 751 mmHg 35%
17:00 +20°C° 0 mm 2 m/s 751 mmHg 39%
18:00 +19°C° 0 mm 2 m/s 751 mmHg 43%
19:00 +17°C° 0 mm 2 m/s 751 mmHg 48%
20:00 +16°C° 0 mm 3 m/s 751 mmHg 53%
21:00 +13°C° 0 mm 3 m/s 751 mmHg 58%
22:00 +12°C° 0 mm 3 m/s 751 mmHg 61%
23:00 +11°C° 0 mm 3 m/s 752 mmHg 65%

Demain, 16 Avril, Vendredi

Heure Température Précipitation Vent Pression Humidité
00:00 +11°C° 0 mm 3 m/s 752 mmHg 68%
01:00 +10°C° 0 mm 3 m/s 752 mmHg 74%
02:00 +10°C° 0 mm 3 m/s 752 mmHg 79%
03:00 +9°C° 0 mm 3 m/s 752 mmHg 85%
04:00 +8°C° 0 mm 4 m/s 752 mmHg 86%
05:00 +8°C° 0 mm 4 m/s 753 mmHg 88%
06:00 +8°C° 0 mm 4 m/s 753 mmHg 90%
07:00 +10°C° 0 mm 4 m/s 753 mmHg 85%
08:00 +9°C° 0 mm 5 m/s 753 mmHg 80%
09:00 +10°C° 0 mm 5 m/s 753 mmHg 75%
10:00 +13°C° 0 mm 5 m/s 754 mmHg 69%
11:00 +14°C° 0 mm 5 m/s 754 mmHg 63%
12:00 +16°C° 0 mm 5 m/s 754 mmHg 56%
13:00 +16°C° 0 mm 5 m/s 754 mmHg 55%
14:00 +16°C° 0 mm 5 m/s 754 mmHg 54%
15:00 +16°C° 0 mm 5 m/s 754 mmHg 53%
16:00 +15°C° 0 mm 5 m/s 754 mmHg 57%
17:00 +14°C° 0 mm 5 m/s 754 mmHg 61%
18:00 +14°C° 0 mm 5 m/s 754 mmHg 65%
19:00 +12°C° 0 mm 5 m/s 754 mmHg 69%
20:00 +10°C° 0 mm 5 m/s 755 mmHg 74%
21:00 +9°C° 0 mm 5 m/s 755 mmHg 79%
22:00 +8°C° 0.1 mm 5 m/s 755 mmHg 81%
23:00 +8°C° 0.1 mm 5 m/s 755 mmHg 82%

Après-demain, 17 Avril, Samedi

Heure Température Précipitation Vent Pression Humidité
00:00 +7°C° 0.1 mm 5 m/s 755 mmHg 84%
01:00 +7°C° 0 mm 5 m/s 755 mmHg 84%
02:00 +7°C° 0 mm 4 m/s 755 mmHg 85%
03:00 +6°C° 0 mm 4 m/s 755 mmHg 86%
04:00 +6°C° 0 mm 4 m/s 756 mmHg 84%
05:00 +6°C° 0 mm 4 m/s 756 mmHg 83%
06:00 +5°C° 0 mm 4 m/s 756 mmHg 82%
07:00 +6°C° 0 mm 5 m/s 756 mmHg 77%
08:00 +7°C° 0 mm 5 m/s 756 mmHg 72%
09:00 +8°C° 0 mm 5 m/s 756 mmHg 67%
10:00 +10°C° 0 mm 5 m/s 756 mmHg 63%
11:00 +13°C° 0 mm 5 m/s 756 mmHg 58%
12:00 +14°C° 0 mm 6 m/s 756 mmHg 53%
13:00 +15°C° 0 mm 6 m/s 756 mmHg 52%
14:00 +15°C° 0 mm 6 m/s 756 mmHg 50%
15:00 +15°C° 0 mm 6 m/s 756 mmHg 49%
16:00 +15°C° 0 mm 6 m/s 756 mmHg 50%
17:00 +14°C° 0 mm 5 m/s 756 mmHg 51%
18:00 +13°C° 0 mm 5 m/s 756 mmHg 52%
19:00 +12°C° 0 mm 5 m/s 757 mmHg 51%
20:00 +9°C° 0 mm 5 m/s 757 mmHg 51%
21:00 +8°C° 0 mm 5 m/s 757 mmHg 51%
22:00 +7°C° 0 mm 4 m/s 757 mmHg 53%
23:00 +7°C° 0 mm 4 m/s 758 mmHg 55%

18 Avril, Dimanche

Heure Température Précipitation Vent Pression Humidité
00:00 +6°C° 0 mm 4 m/s 758 mmHg 57%
01:00 +6°C° 0 mm 4 m/s 758 mmHg 59%
02:00 +5°C° 0 mm 4 m/s 758 mmHg 62%
03:00 +4°C° 0 mm 4 m/s 758 mmHg 64%
04:00 +4°C° 0 mm 4 m/s 759 mmHg 66%
05:00 +3°C° 0 mm 4 m/s 759 mmHg 68%
06:00 +3°C° 0 mm 3 m/s 759 mmHg 70%
07:00 +5°C° 0 mm 4 m/s 759 mmHg 63%
08:00 +6°C° 0 mm 4 m/s 759 mmHg 56%
09:00 +8°C° 0 mm 5 m/s 759 mmHg 50%
10:00 +9°C° 0 mm 5 m/s 759 mmHg 46%
11:00 +10°C° 0 mm 5 m/s 759 mmHg 42%
12:00 +12°C° 0 mm 5 m/s 759 mmHg 38%
13:00 +13°C° 0 mm 5 m/s 759 mmHg 36%
14:00 +13°C° 0 mm 5 m/s 759 mmHg 35%
15:00 +13°C° 0 mm 5 m/s 759 mmHg 33%
16:00 +13°C° 0 mm 4 m/s 759 mmHg 37%
17:00 +12°C° 0 mm 4 m/s 760 mmHg 40%
18:00 +12°C° 0 mm 4 m/s 760 mmHg 43%
19:00 +10°C° 0 mm 3 m/s 760 mmHg 50%
20:00 +9°C° 0 mm 2 m/s 760 mmHg 56%
21:00 +8°C° 0 mm 2 m/s 760 mmHg 62%
22:00 +7°C° 0 mm 2 m/s 761 mmHg 65%
23:00 +7°C° 0 mm 2 m/s 761 mmHg 69%

19 Avril, Lundi

Heure Température Précipitation Vent Pression Humidité
00:00 +5°C° 0 mm 3 m/s 761 mmHg 72%
01:00 +5°C° 0 mm 3 m/s 761 mmHg 73%
02:00 +4°C° 0 mm 3 m/s 762 mmHg 75%
03:00 +4°C° 0 mm 3 m/s 762 mmHg 77%
04:00 +4°C° 0 mm 3 m/s 762 mmHg 77%
05:00 +3°C° 0 mm 3 m/s 763 mmHg 77%
06:00 +3°C° 0 mm 3 m/s 763 mmHg 78%
07:00 +4°C° 0 mm 3 m/s 763 mmHg 69%
08:00 +6°C° 0 mm 4 m/s 763 mmHg 59%
09:00 +7°C° 0 mm 4 m/s 764 mmHg 50%
10:00 +8°C° 0 mm 4 m/s 764 mmHg 45%
11:00 +10°C° 0 mm 4 m/s 764 mmHg 39%
12:00 +11°C° 0 mm 4 m/s 764 mmHg 34%
13:00 +11°C° 0 mm 4 m/s 764 mmHg 33%
14:00 +11°C° 0 mm 4 m/s 764 mmHg 32%
15:00 +11°C° 0 mm 4 m/s 764 mmHg 32%
16:00 +11°C° 0 mm 4 m/s 764 mmHg 33%
17:00 +10°C° 0 mm 4 m/s 764 mmHg 35%
18:00 +10°C° 0 mm 3 m/s 764 mmHg 37%
19:00 +8°C° 0 mm 3 m/s 764 mmHg 41%
20:00 +7°C° 0 mm 3 m/s 764 mmHg 46%
21:00 +4°C° 0 mm 3 m/s 765 mmHg 50%
22:00 +4°C° 0 mm 3 m/s 765 mmHg 52%
23:00 +3°C° 0 mm 3 m/s 765 mmHg 53%

20 Avril, Mardi

Heure Température Précipitation Vent Pression Humidité
00:00 +2°C° 0 mm 3 m/s 765 mmHg 55%
01:00 +2°C° 0 mm 3 m/s 765 mmHg 57%
02:00 +1°C° 0 mm 3 m/s 765 mmHg 59%
03:00 +1°C° 0 mm 3 m/s 765 mmHg 60%
04:00 +1°C° 0 mm 3 m/s 765 mmHg 61%
05:00 0°C° 0 mm 3 m/s 765 mmHg 63%
06:00 0°C° 0 mm 3 m/s 765 mmHg 64%
07:00 +2°C° 0 mm 3 m/s 765 mmHg 56%
08:00 +4°C° 0 mm 4 m/s 765 mmHg 49%
09:00 +6°C° 0 mm 4 m/s 765 mmHg 41%
10:00 +7°C° 0 mm 5 m/s 765 mmHg 38%
11:00 +8°C° 0 mm 5 m/s 765 mmHg 34%
12:00 +9°C° 0 mm 5 m/s 765 mmHg 30%
13:00 +9°C° 0 mm 6 m/s 764 mmHg 29%
14:00 +10°C° 0 mm 6 m/s 763 mmHg 28%
15:00 +10°C° 0 mm 6 m/s 763 mmHg 27%
16:00 +9°C° 0 mm 6 m/s 762 mmHg 29%
17:00 +9°C° 0 mm 5 m/s 762 mmHg 31%
18:00 +9°C° 0 mm 5 m/s 762 mmHg 33%
19:00 +7°C° 0 mm 5 m/s 762 mmHg 37%
20:00 +6°C° 0 mm 4 m/s 762 mmHg 41%
21:00 +5°C° 0 mm 4 m/s 762 mmHg 44%
22:00 +5°C° 0 mm 4 m/s 762 mmHg 46%
23:00 +3°C° 0 mm 5 m/s 762 mmHg 48%
Voir plus

Nous avons besoin de votre consentement

Meteoprog et ses fournisseurs de services peuvent stocker et accéder à des données personnelles telles que des cookies, des identifiants d'appareils ou d'autres technologies similaires sur votre appareil et traiter ces données pour personnaliser le contenu et les publicités, ainsi que pour fournir des fonctionnalités de médias sociaux et analyser le trafic.

  • Stocker et/ou accéder à des informations sur votre appareil

    Des cookies, des identifiants d'appareils ou d'autres informations peuvent être stockés ou accessibles sur votre appareil aux fins indiquées ci-dessus.

  • Annonces et contenus personnalisés, mesure des annonces et des contenus, connaissance de l'audience et développement de produits

    Les annonces et le contenu peuvent être personnalisés en fonction d'un profil. D'autres données peuvent être ajoutées pour mieux personnaliser les annonces et le contenu. Les performances des publicités et du contenu peuvent être mesurées. Il est possible d'obtenir des informations sur le public qui a vu les publicités et le contenu. Ces données peuvent être utilisées pour développer ou améliorer l'expérience de l'utilisateur, les systèmes et les logiciels.

En cliquant sur "J'accepte", vous autorisez l'utilisation de cookies, des identifiants d'appareils, des balises web ou d'autres technologies similaires. Vos paramètres peuvent être modifiés dans le navigateur de votre appareil.

Dans certains cas, des intérêts légitimes peuvent être invoqués plutôt qu'un consentement. Vous pouvez en savoir plus à ce sujet dans notre Politique de confidentialité et de cookies.